Weather History for Hulett, WY

Change the Weather History Date:

Tuesday, February 18, 2014

  Actual Average (KEFC) Record (KEFC)
Temperature  
Mean Temperature 34 °F -  
Max Temperature 39 °F 40 °F 68 °F (1983)
Min Temperature 28 °F 14 °F -19 °F (1993)
Degree Days  
Heating Degree Days 32    
Moisture  
Dew Point 19 °F    
Average Humidity 51    
Maximum Humidity 75    
Minimum Humidity 33    
Precipitation  
Precipitation 0.00 in - - ()
Sea Level Pressure  
Sea Level Pressure 29.78 in    
Wind  
Wind Speed 11 mph (WSW)    
Max Wind Speed 22 mph    
Max Gust Speed 37 mph    
Visibility 10 miles    
Events      
Averages and records for this station are not official NWS values.
T = Trace of Precipitation, MM = Missing Value Source: NWS Daily Summary

Daily Weather History Graph

Daily Weather History Graph

Search for Another Location

Airport:

Trip Planner

Search our weather history database for the weather conditions in past years. The results will help you decide how hot, cold, wet, or windy it might be!

Date:

Astronomy

Feb. 18, 2014 Rise Set
Actual Time 6:53 AM MST 5:31 PM MST
Civil Twilight 6:24 AM MST 6:00 PM MST
Nautical Twilight 5:50 AM MST 6:35 PM MST
Astronomical Twilight 5:16 AM MST 7:08 PM MST
Moon 9:38 PM MST (2/18) 8:17 AM MST (2/18)
Length of Visible Light 11h 36m
Length of Day
10h 37m
Waning Gibbous, 87% of the Moon is Illuminated
Feb 18
Waning Gibbous
Feb 22
Last Quarter
Mar 1
New
Mar 8
First Quarter
Mar 16
Full

Hourly Weather History & Observations

Time (MST) Temp. Windchill Dew Point Humidity Pressure Visibility Wind Dir Wind Speed Gust Speed Precip Events Conditions
12:15 AM 35.6 °F 27.5 °F 21.2 °F 56% 29.62 in 10.0 mi SSW 11.5 mph - N/A   Scattered Clouds
12:35 AM 37.4 °F 28.9 °F 21.2 °F 52% 29.62 in 10.0 mi SSW 13.8 mph - N/A   Mostly Cloudy
12:55 AM 37.4 °F 29.8 °F 21.2 °F 52% 29.62 in 10.0 mi SW 11.5 mph - N/A   Mostly Cloudy
1:15 AM 37.4 °F 30.3 °F 19.4 °F 48% 29.61 in 10.0 mi SW 10.4 mph - N/A   Scattered Clouds
1:35 AM 37.4 °F 29.3 °F 19.4 °F 48% 29.60 in 10.0 mi SSW 12.7 mph - N/A   Scattered Clouds
1:55 AM 37.4 °F 29.3 °F 19.4 °F 48% 29.60 in 10.0 mi SW 12.7 mph - N/A   Clear
2:15 AM 37.4 °F 30.3 °F 19.4 °F 48% 29.59 in 10.0 mi SSW 10.4 mph - N/A   Clear
2:35 AM 37.4 °F 29.3 °F 19.4 °F 48% 29.59 in 10.0 mi SW 12.7 mph 18.4 mph N/A   Clear
2:55 AM 35.6 °F 27.1 °F 19.4 °F 52% 29.59 in 10.0 mi SSW 12.7 mph - N/A   Clear
3:15 AM 37.4 °F 29.8 °F 19.4 °F 48% 29.59 in 10.0 mi SW 11.5 mph - N/A   Clear
3:35 AM 37.4 °F 29.8 °F 19.4 °F 48% 29.60 in 10.0 mi SW 11.5 mph - N/A   Mostly Cloudy
3:55 AM 37.4 °F 30.3 °F 21.2 °F 52% 29.60 in 10.0 mi SSW 10.4 mph - N/A   Overcast
4:15 AM 35.6 °F 29.9 °F 21.2 °F 56% 29.64 in 10.0 mi West 6.9 mph - N/A   Overcast
4:35 AM 37.4 °F 30.8 °F 19.4 °F 48% 29.67 in 10.0 mi WNW 9.2 mph 21.9 mph N/A   Overcast
4:55 AM 37.4 °F 26.6 °F 24.8 °F 60% 29.70 in 7.0 mi NW 21.9 mph 36.8 mph N/A   Overcast
5:15 AM 35.6 °F 29.9 °F 28.4 °F 75% 29.69 in 10.0 mi WNW 6.9 mph 16.1 mph N/A   Overcast
5:35 AM 35.6 °F 29.9 °F 28.4 °F 75% 29.70 in 10.0 mi West 6.9 mph - N/A   Overcast
5:55 AM 35.6 °F 29.2 °F 28.4 °F 75% 29.70 in 10.0 mi West 8.1 mph - N/A   Overcast
6:15 AM 35.6 °F 28.6 °F 26.6 °F 70% 29.70 in 10.0 mi SW 9.2 mph - N/A   Overcast
6:35 AM 35.6 °F 27.5 °F 24.8 °F 65% 29.71 in 10.0 mi West 11.5 mph 16.1 mph N/A   Overcast
6:55 AM 35.6 °F 27.5 °F 24.8 °F 65% 29.72 in 10.0 mi West 11.5 mph 19.6 mph N/A   Overcast
7:15 AM 35.6 °F 28.0 °F 24.8 °F 65% 29.75 in 10.0 mi West 10.4 mph 20.7 mph N/A   Overcast
7:35 AM 35.6 °F 29.2 °F 24.8 °F 65% 29.76 in 10.0 mi WNW 8.1 mph 16.1 mph N/A   Overcast
7:55 AM 35.6 °F 30.7 °F 24.8 °F 65% 29.77 in 10.0 mi WNW 5.8 mph - N/A   Mostly Cloudy
8:15 AM 35.6 °F 29.2 °F 23.0 °F 60% 29.79 in 10.0 mi West 8.1 mph - N/A   Mostly Cloudy
8:35 AM 35.6 °F 27.1 °F 23.0 °F 60% 29.80 in 10.0 mi West 12.7 mph 19.6 mph N/A   Scattered Clouds
8:55 AM 35.6 °F 27.5 °F 23.0 °F 60% 29.81 in 10.0 mi WNW 11.5 mph 20.7 mph N/A   Clear
9:15 AM 37.4 °F 30.8 °F 21.2 °F 52% 29.81 in 10.0 mi WNW 9.2 mph 23.0 mph N/A   Clear
9:35 AM 37.4 °F 30.3 °F 21.2 °F 52% 29.82 in 10.0 mi WNW 10.4 mph 17.3 mph N/A   Scattered Clouds
9:55 AM 37.4 °F 28.5 °F 19.4 °F 48% 29.83 in 10.0 mi WNW 15.0 mph 25.3 mph N/A   Scattered Clouds
10:15 AM 37.4 °F 27.5 °F 19.4 °F 48% 29.84 in 10.0 mi WNW 18.4 mph 24.2 mph N/A   Clear
10:35 AM 37.4 °F 29.8 °F 19.4 °F 48% 29.85 in 10.0 mi West 11.5 mph 26.5 mph N/A   Clear
10:55 AM 37.4 °F 29.8 °F 19.4 °F 48% 29.86 in 10.0 mi WNW 11.5 mph 24.2 mph N/A   Clear
11:15 AM 37.4 °F 29.3 °F 19.4 °F 48% 29.86 in 10.0 mi West 12.7 mph 25.3 mph N/A   Clear
11:35 AM 39.2 °F 30.5 °F 17.6 °F 42% 29.87 in 10.0 mi WNW 16.1 mph 28.8 mph N/A   Scattered Clouds
11:55 AM 39.2 °F 29.8 °F 17.6 °F 42% 29.87 in 10.0 mi WNW 18.4 mph 24.2 mph N/A   Scattered Clouds
12:15 PM 37.4 °F 27.8 °F 17.6 °F 45% 29.87 in 10.0 mi West 17.3 mph 26.5 mph N/A   Clear
12:35 PM 39.2 °F 29.6 °F 17.6 °F 42% 29.86 in 10.0 mi West 19.6 mph 25.3 mph N/A   Clear
12:55 PM 39.2 °F 30.2 °F 14.0 °F 36% 29.86 in 10.0 mi WNW 17.3 mph 26.5 mph N/A   Clear
1:15 PM 39.2 °F 30.8 °F 14.0 °F 36% 29.86 in 10.0 mi WNW 15.0 mph 23.0 mph N/A   Clear
1:35 PM 39.2 °F 30.2 °F 14.0 °F 36% 29.86 in 10.0 mi WNW 17.3 mph 27.6 mph N/A   Clear
1:55 PM 39.2 °F 29.8 °F 14.0 °F 36% 29.87 in 10.0 mi WNW 18.4 mph 25.3 mph N/A   Clear
2:15 PM 39.2 °F 30.5 °F 12.2 °F 33% 29.86 in 10.0 mi WNW 16.1 mph 26.5 mph N/A   Clear
2:35 PM 39.2 °F 29.3 °F 12.2 °F 33% 29.87 in 10.0 mi WNW 20.7 mph 32.2 mph N/A   Clear
2:55 PM 39.2 °F 31.2 °F 14.0 °F 36% 29.88 in 10.0 mi NW 13.8 mph 21.9 mph N/A   Clear
3:15 PM 39.2 °F 30.5 °F 12.2 °F 33% 29.88 in 10.0 mi WNW 16.1 mph 21.9 mph N/A   Clear
3:35 PM 39.2 °F 32.0 °F 14.0 °F 36% 29.88 in 10.0 mi WNW 11.5 mph 24.2 mph N/A   Clear
3:55 PM 39.2 °F 32.0 °F 14.0 °F 36% 29.88 in 10.0 mi WNW 11.5 mph 21.9 mph N/A   Clear
4:15 PM 39.2 °F 31.6 °F 15.8 °F 39% 29.89 in 10.0 mi NW 12.7 mph 16.1 mph N/A   Clear
4:35 PM 39.2 °F 32.5 °F 14.0 °F 36% 29.89 in 10.0 mi WNW 10.4 mph 20.7 mph N/A   Clear
4:55 PM 37.4 °F 32.1 °F 14.0 °F 38% 29.89 in 10.0 mi West 6.9 mph - N/A   Clear
5:15 PM 37.4 °F 31.4 °F 12.2 °F 36% 29.89 in 10.0 mi West 8.1 mph - N/A   Clear
5:35 PM 35.6 °F 29.9 °F 15.8 °F 44% 29.89 in 10.0 mi WSW 6.9 mph - N/A   Clear
5:55 PM 33.8 °F 27.7 °F 17.6 °F 52% 29.90 in 10.0 mi SW 6.9 mph - N/A   Clear
6:15 PM 32.0 °F 24.8 °F 17.6 °F 55% 29.89 in 10.0 mi WSW 8.1 mph - N/A   Clear
6:35 PM 33.8 °F 26.4 °F 17.6 °F 52% 29.89 in 10.0 mi SSW 9.2 mph - N/A   Clear
6:55 PM 32.0 °F 24.2 °F 17.6 °F 55% 29.89 in 10.0 mi SSW 9.2 mph - N/A   Clear
7:15 PM 32.0 °F 24.8 °F 17.6 °F 55% 29.88 in 10.0 mi SSW 8.1 mph - N/A   Clear
7:35 PM 32.0 °F 24.8 °F 17.6 °F 55% 29.88 in 10.0 mi SSW 8.1 mph - N/A   Clear
7:55 PM 32.0 °F 26.4 °F 17.6 °F 55% 29.88 in 10.0 mi SSW 5.8 mph - N/A   Clear
8:15 PM 32.0 °F 23.6 °F 17.6 °F 55% 29.87 in 10.0 mi South 10.4 mph - N/A   Clear
8:35 PM 32.0 °F 24.2 °F 17.6 °F 55% 29.87 in 10.0 mi South 9.2 mph - N/A   Clear
8:55 PM 32.0 °F 24.2 °F 17.6 °F 55% 29.85 in 10.0 mi South 9.2 mph - N/A   Clear
9:15 PM 30.2 °F 23.4 °F 17.6 °F 60% 29.84 in 10.0 mi South 6.9 mph - N/A   Clear
9:35 PM 32.0 °F 24.2 °F 17.6 °F 55% 29.83 in 10.0 mi South 9.2 mph - N/A   Clear
9:55 PM 32.0 °F 23.6 °F 17.6 °F 55% 29.81 in 10.0 mi South 10.4 mph - N/A   Clear
10:15 PM 30.2 °F 26.7 °F 17.6 °F 60% 29.80 in 10.0 mi SW 3.5 mph - N/A   Clear
10:35 PM 30.2 °F 26.7 °F 17.6 °F 60% 29.78 in 10.0 mi SW 3.5 mph - N/A   Clear
10:55 PM 28.4 °F 23.3 °F 17.6 °F 64% 29.76 in 10.0 mi SSW 4.6 mph - N/A   Clear
11:15 PM 30.2 °F 25.4 °F 15.8 °F 55% 29.75 in 10.0 mi SW 4.6 mph - N/A   Clear
11:35 PM 32.0 °F 26.4 °F 15.8 °F 51% 29.74 in 10.0 mi SW 5.8 mph - N/A   Clear
11:55 PM 33.8 °F 25.8 °F 15.8 °F 48% 29.72 in 10.0 mi SSW 10.4 mph - N/A   Clear